Weather in Glauchau

Germany     50°49′30″N   12°32′18″E
temp.,
°C
wind,
m/s
gust,
m/s
humid.,
%
clouds,
%
prec.,
mm/h
press.,
hPa
HPBL,
m
17 april, sat
sat1723:000w119271 0.0 102513
02:00−2wsw119365 0.0 102512
05:00−1w1394100 0.0 1024118
08:00+1nw25100100 0.8 1024321
11:00+1nw23100100 0.7 1024193
14:00+2nnw23100100 0.9 1023203
17:00+2n12100100 0.1 1023292
20:00+2wsw11100100 0.2 1023149
18 april, sun
sun1823:00+2sw12100100 0.1 102383
02:00+2sw23100100 1.7 102290
05:00+3sw2399100 1.6 102185
08:00+3wsw11100100 1.6 102188
11:00+4wnw1299100 0.0 1021225
14:00+6nw1399100 0.6 1020243
17:00+8ese118697 0.7 1019422
20:00+5wsw229594 1.1 102027
19 april, mon
mon1923:00+5sw2297100 0.1 102026
02:00+5w1196100 0.1 101913
05:00+5wnw1198100 0.0 101916
08:00+5n0199100 0.0 1019110
11:00+8ene2381100 0.0 1018698
14:00+11ne237099 0.4 1017938
17:00+11nne4574100 1.2 1016951
20:00+8ene369499 2.1 1016152
20 april, tue
tue2023:00+7ne1194100 0.4 101713
02:00+5ne11945 0.5 101610
05:00+3nnw019465 0.0 101610
08:00+6n1294100 0.4 1016180
11:00+8nnw128492 0.8 1015282
14:00+12nne335979 1.3 10131440
17:00+12nne345757 0.1 10121524
20:00+7ne22825 0.2 101319
21 april, wed
wed2123:00+5sse22875 0.0 101312
02:00+4ssw21870 0.0 101310
05:00+3s22885 0.0 101218
08:00+7ssw237724 0.0 1011122
11:00+12sw33578 0.0 10101146
14:00+13wsw2356100 0.2 10081317
17:00+14s245467 0.1 10071470
20:00+9s227695 1.1 100713